TimeCST,TemperatureF,Dew PointF,Humidity,Sea Level PressureIn,VisibilityMPH,Wind Direction,Wind SpeedMPH,Gust SpeedMPH,PrecipitationIn,Events,Conditions,WindDirDegrees,DateUTC
6:00 AM,70,65,79,29.81,12,East,4.6,,,,,100,2013-02-23 12:00:00
6:00 AM,69.8,64.4,83,29.80,-9999.0,East,4.6,-,N/A,,Clear,100,2013-02-23 12:00:00
7:00 AM,71.6,64.4,78,29.83,-9999.0,NE,4.6,-,N/A,,Clear,40,2013-02-23 13:00:00
8:00 AM,84.2,64.4,51,29.84,-9999.0,WSW,2.3,-,N/A,,Clear,240,2013-02-23 14:00:00
9:00 AM,87,64,37,29.86,12,East,13.8,,,,,80,2013-02-23 15:00:00
9:00 AM,87.8,64.4,46,29.84,-9999.0,East,13.8,-,N/A,,Clear,80,2013-02-23 15:00:00
10:00 AM,89.6,62.6,40,29.85,-9999.0,East,15.0,-,N/A,,Clear,80,2013-02-23 16:00:00
11:00 AM,89.6,62.6,40,29.82,6.2,ENE,19.6,-,N/A,,Partly Cloudy,70,2013-02-23 17:00:00
12:00 PM,,62,,29.81,12,NNE,43.7,,,,,30,2013-02-23 18:00:00
12:00 PM,93.2,64.4,38,29.79,6.2,East,13.8,-,N/A,,Partly Cloudy,90,2013-02-23 18:00:00
1:00 PM,93.2,62.6,36,29.78,6.2,East,10.4,-,N/A,,Partly Cloudy,80,2013-02-23 19:00:00
2:00 PM,93.2,62.6,36,29.75,6.2,ENE,11.5,-,N/A,,Partly Cloudy,60,2013-02-23 20:00:00
3:00 PM,93.2,62.6,36,29.73,6.2,East,11.5,-,N/A,,Partly Cloudy,100,2013-02-23 21:00:00
4:00 PM,91.4,62.6,38,29.73,6.2,East,15.0,-,N/A,,Partly Cloudy,80,2013-02-23 22:00:00
5:00 PM,87.8,62.6,43,29.74,6.2,ENE,13.8,-,N/A,,Partly Cloudy,70,2013-02-23 23:00:00
6:00 PM,84.2,64.4,51,29.75,6.2,ENE,11.5,-,N/A,,Partly Cloudy,70,2013-02-24 00:00:00
8:00 PM,80.6,64.4,58,29.81,-9999.0,South,5.8,-,N/A,,Clear,170,2013-02-24 02:00:00
9:00 PM,78.8,64.4,61,29.82,-9999.0,East,4.6,-,N/A,,Clear,80,2013-02-24 03:00:00
10:00 PM,78.8,64.4,61,29.83,-9999.0,East,6.9,-,N/A,,Clear,100,2013-02-24 04:00:00
11:00 PM,77.0,62.6,61,29.84,-9999.0,NE,6.9,-,N/A,,Clear,50,2013-02-24 05:00:00